Regional Weather Roundup
Issued by NWS

Home | Current Version | Previous Version | Text Only | Print | Product List | Glossary On
Versions: 1 2 3 4 5 6 7 8 9 10 11 12 13 14 15 16 17 18 19 20 21 22 23 24 25 26 27 28 29 30 31 32 33 34 35 36 37 38 39 40 41 42 43 44 45 46 47 48 49 50
000
ASUS43 KLMK 250510
RWRKY
KENTUCKY REGIONAL WEATHER ROUNDUP
NATIONAL WEATHER SERVICE LOUISVILLE KY
100 AM EDT TUE JUL 25 2017

NOTE "FAIR" INDICATES FEW OR NO CLOUDS BELOW 12,000 FEET
WITH NO SIGNIFICANT WEATHER AND/OR OBSTRUCTIONS TO VISIBILITY.

KYZ001>023-026-027-061>063-070>075-250600-
WESTERN AND SOUTH CENTRAL KENTUCKY

CITY           SKY/WX    TMP DP  RH WIND       PRES   REMARKS
PADUCAH        MOCLDY    76  73  91 CALM      30.00R FOG
HENDERSON      CLEAR     74  70  87 NE5       30.03R
OWENSBORO      CLEAR     77  70  79 NE5       30.03R
HOPKINSVILLE   MOCLDY    78  74  88 CALM      30.01S
BOWLING GREEN  PTCLDY    79  72  79 CALM      30.02R
GLASGOW        PTCLDY    75  75 100 CALM      30.03R
$$

KYZ024-025-028>034-038-045-046-053-250600-
NORTH CENTRAL KENTUCKY

CITY           SKY/WX    TMP DP  RH WIND       PRES   REMARKS
LOUISVILLE/SDF PTCLDY    77  67  71 NE8       30.04R
LOUISVILLE/LOU CLEAR     77  68  73 NE10      30.05R
FORT KNOX      MOCLDY    73  67  79 NE6       30.03R
$$

KYZ035>037-039>044-047>052-055>060-089>105-250600-
NORTHEAST KENTUCKY

CITY           SKY/WX    TMP DP  RH WIND       PRES   REMARKS
LEXINGTON      PTCLDY    73  66  78 NE12      30.07R
COVINGTON      CLEAR     71  61  70 NE13      30.09R
FRANKFORT      MOCLDY    75  65  70 NE9       30.06R
$$

KYZ054-064>069-076>088-106>120-250600-
SOUTHEAST KENTUCKY

CITY           SKY/WX    TMP DP  RH WIND       PRES   REMARKS
JACKSON        CLOUDY    71  68  90 CALM      30.08R
LONDON         CLOUDY    74  68  81 CALM      30.07R
SOMERSET       MOCLDY    72  72 100 CALM      30.07R
MIDDLESBORO    PTCLDY    71  69  93 CALM      30.08S
MONTICELLO     MOCLDY    73  72  96 N8        30.08R
$$





USA.gov is the U.S. government's official web portal to all federal, state and local government web resources and services.